sat.trackr.live / text

‹ back to catalog

STARLINK-30429

NORAD 57876 · 2023-144N

PAYLOAD ACTIVE UNKNOWN

§ Identity

Operator
Country
US
Launch date
2023-09-16
Launch site
AFETR
Launch vehicle
Mass (kg)
RCS (m²)

Purposes: comms

External: N2YO · Heavens-Above · Gunter

§ Orbital elements

Epoch: 2026-09-19T00:49:49.700064Z

Period
94.27 min
Inclination
43.0037°
Eccentricity
0.0001412
Mean motion
15.27578005 rev/d
Perigee alt
482.1 km
Apogee alt
484.0 km
Semi-major
6,861.2 km
B*
3.0839e-5
RAAN
273.5856°
Arg perigee
268.3652°
Mean anomaly
91.7038°
Rev number
16,720

§ Raw data

STARLINK-304291 57876U 23144N   26262.03460301  .00000586  00000+0  30839-4 0  99972 57876  43.0037 273.5856 0001412 268.3652  91.7038 15.27578005167202

JSON: /api/v1/satellites/57876 · /tle

For live sub-satellite position, see the globe view (requires WebGL).

§ Visibility from observer

Set your observer location to see the next 7 days of passes ≥ 10°. The values pass through the URL so the page stays shareable.

No JS? Fill the form by hand. The geolocation button needs JavaScript.